Location: Berlin
(38.3226°N, 75.2177°W)
Time: 11:09:44
(UTC+00:00)

Cosmos 2360 - Pass Details

Date: 26 October 2020
Orbit: 848 x 854 km, 70.8° (Epoch: 29 November)

Event Time Altitude Azimuth Distance (km) Brightness Sun altitude
Rises 10:24:52 0° 333° (NNW) 3,423 7.0 -11.7°
Reaches altitude 10° 10:27:21 10° 330° (NNW) 2,482 6.3 -11.2°
Maximum altitude 10:32:58 62° 252° (WSW) 951 4.2 -10.1°
Drops below altitude 10° 10:38:32 10° 172° (S) 2,463 6.9 -9.0°
Sets 10:41:00 0° 169° (S) 3,394 7.6 -8.6°
